RH
68 70 83 87 84 68 63 58 56 59 53 41 33 35 38 52 58 72 86 97 100 100 100 100 100 81 92 91 99 100 100 90 77 74 86 97 100 100 100 99 90 85 76 64
54 63 70 70 68 70 68 61 64 54 46 44 46 41 32 32 41 43 44 55 54 57 58 62 69 75 67 68 80 69 88 70 66 58 73 91 95 100 100 100 100 100 100 100
27 35 47 56 61 65 67 65 58 58 49 44 52 46 41 42 38 33 33 32 39 42 39 46 40 50 51 52 55 53 50 48 49 40 42 44 66 60 90 100 100 100 100 100
22 27 32 39 46 54 61 62 60 54 45 45 49 48 47 45 38 39 40 37 40 32 29 35 34 47 44 39 40 37 39 36 42 43 45 42 38 43 51 66 66 52 73 99
21 25 32 39 44 51 52 50 47 44 51 55 52 49 58 56 49 41 38 38 31 30 32 38 30 29 29 32 36 39 39 36 40 42 47 37 32 34 39 41 42 42 44 45
21 25 29 31 32 32 36 39 39 34 36 40 43 55 56 44 37 32 30 30 28 30 32 28 29 33 31 27 26 28 32 32 28 25 25 24 21 22 23 23 30 35 34 39
22 23 24 24 24 26 28 28 28 30 34 30 32 36 35 32 31 29 28 30 33 35 26 24 25 23 20 18 16 17 16 16 15 13 13 12 12 12 13 13 14 13 16 21
18 19 19 19 21 23 24 23 25 25 23 25 26 28 28 27 27 23 24 20 18 16 17 14 13 12 11 13 13 14 14 12 12 12 11 11 12 13 12 11 12 12 15 14
16 16 17 17 18 19 20 19 19 20 18 20 20 16 16 17 15 14 15 15 14 12 13 12 11 12 14 13 13 14 14 13 12 11 11 12 14 14 13 12 13 13 14 14
14 14 15 15 15 16 17 16 15 14 14 16 15 15 14 13 14 13 13 13 13 12 12 12 13 13 14 13 14 14 14 14 14 14 14 14 16 15 15 14 14 14 15 16
11 12 12 11 11 11 12 12 10 10 10 12 13 13 12 12 12 12 12 12 13 13 12 12 14 13 13 14 14 15 14 15 15 16 15 19 18 17 16 16 15 15 15 15
11 10 10 10 10 10 10 11 10 10 11 14 12 12 14 13 10 9 11 14 14 14 12 12 12 12 14 15 14 15 15 15 15 15 19 22 24 23 22 22 23 22 20 18
12 12 12 12 12 11 12 12 11 9 11 14 15 13 8 8 9 9 14 14 13 11 10 10 11 12 13 14 17 16 17 17 16 17 18 18 19 21 23 25 24 24 23 27
10 10 10 10 10 10 10 11 10 9 9 13 12 5 7 10 13 11 11 10 8 10 10 10 11 13 13 15 16 15 16 15 16 17 19 18 20 24 28 23 18 16 14 15
10 10 11 11 10 10 10 10 8 7 6 8 8 6 6 8 8 7 7 8 9 8 9 10 12 13 14 14 14 15 15 16 15 15 16 20 28 25 21 18 17 14 14 14
8 10 10 11 10 10 12 10 8 8 8 9 10 9 9 10 9 9 9 9 8 9 9 10 10 11 11 11 13 14 16 15 15 17 24 26 21 16 12 13 12 11 10 9
7 7 7 7 7 7 7 7 7 6 7 7 8 9 10 10 10 10 12 13 12 11 10 10 11 12 11 11 12 13 14 15 17 20 24 25 12 9 7 8 9 12 11 10
6 6 6 7 7 7 7 6 6 6 6 7 8 8 9 10 10 11 12 12 12 12 12 13 13 12 12 16 22 23 26 22 19 15 15 16 15 17 22 18 12 11 10 8
6 6 6 6 7 6 6 6 6 6 7 9 8 7 7 8 8 9 11 12 11 12 13 12 15 29 47 35 20 16 15 16 16 19 20 19 18 17 13 11 11 13 11 10
5 6 6 6 6 6 6 6 6 7 8 8 7 7 7 9 11 13 13 14 14 14 15 21 27 24 19 13 11 10 14 26 27 19 17 15 15 12 12 11 9 8 9 10
5 5 5 6 6 6 6 8 8 8 8 9 8 8 9 11 12 10 12 14 15 15 17 22 21 15 11 22 26 25 27 22 26 20 15 15 13 10 10 10 11 12 13 14
5 5 6 6 6 7 8 8 8 8 8 9 10 10 10 12 11 16 15 15 18 18 18 21 22 22 29 27 24 28 22 18 16 15 14 13 13 14 13 12 11 13 14 15
6 6 6 6 7 8 9 9 9 8 8 8 10 10 10 11 12 12 14 12 13 22 19 18 22 25 22 19 15 14 16 17 15 14 18 15 13 14 16 15 16 16 15 15
7 7 8 7 8 9 9 8 9 11 11 10 10 11 11 12 14 19 21 17 16 18 19 16 21 17 16 15 14 16 16 13 15 18 18 18 19 21 21 19 18 20 23 23
8 8 10 10 11 9 8 8 9 10 11 12 14 15 19 19 19 23 20 15 14 13 13 14 18 18 25 20 17 19 21 24 26 24 23 24 25 23 23 26 27 28 29 30
7 8 9 9 10 9 10 10 10 10 10 11 13 16 18 17 18 16 16 15 17 16 16 17 20 26 25 24 28 31 30 29 26 28 32 32 31 31 32 33 36 40 45 42
9 9 10 12 12 12 11 11 10 9 10 10 10 10 12 15 16 17 24 31 24 21 21 21 24 25 24 25 28 33 32 35 39 40 40 40 40 41 43 46 48 43 46 53
Wind_Speed
113 113 115 114 115 116 117 118 120 121 126 132 137 137 136 139 139 143 141 142 139 138 137 135 136 130 131 128 129 130 129 130 128 122 119 121 122 122 124 127 123 124 123 117
106 108 109 110 111 113 115 116 118 122 126 127 129 131 136 137 133 137 141 145 146 145 141 141 138 137 135 133 135 135 132 132 132 125 122 125 128 127 126 129 124 120 124 122
100 101 102 104 106 110 114 114 116 118 122 121 124 128 127 126 127 131 137 137 137 138 137 141 139 137 136 134 133 132 131 131 130 126 123 121 128 126 128 129 128 126 124 117
94 96 98 100 101 105 107 109 109 111 111 114 119 121 119 121 123 126 129 127 128 136 137 135 133 132 133 132 131 128 130 125 123 123 119 116 115 118 123 127 131 130 127 132
88 92 92 94 96 98 100 102 103 105 106 107 108 110 110 117 119 118 120 119 120 120 121 124 125 127 123 121 120 116 113 113 112 108 114 114 111 111 115 117 119 124 124 124
82 85 86 89 92 94 96 97 97 97 98 100 101 103 107 111 113 113 111 112 111 113 114 110 108 110 107 104 101 98 100 101 102 97 100 105 99 95 107 103 105 111 114 115
78 80 82 85 87 88 90 92 94 94 94 95 95 97 101 104 104 102 101 101 101 103 102 97 96 93 92 90 85 89 90 92 93 90 92 92 86 90 93 96 95 100 98 100
72 74 76 77 80 82 85 86 87 89 89 91 91 94 97 95 94 93 92 92 93 93 90 88 86 83 78 76 77 81 82 83 82 84 82 78 76 83 86 88 85 85 89 90
67 69 71 72 74 77 80 82 83 84 83 83 86 87 86 88 87 86 83 86 88 86 84 80 73 71 71 72 72 72 75 77 76 74 72 68 70 76 78 79 76 77 81 85
61 63 65 68 70 71 73 77 77 76 74 76 79 79 79 78 81 77 78 78 82 77 71 68 67 64 66 65 63 65 70 68 64 65 64 62 68 69 71 72 73 71 73 76
55 57 60 61 62 62 65 68 68 66 62 63 68 71 70 73 72 70 70 67 66 67 64 61 61 60 62 61 58 59 61 59 59 59 56 53 66 65 65 67 68 69 71 71
51 53 54 55 56 55 54 57 59 55 50 58 62 62 64 67 67 59 58 54 61 64 60 58 58 55 55 57 54 59 55 56 56 55 50 53 59 60 61 63 65 67 67 66
45 47 48 49 49 50 49 52 53 47 44 51 58 64 66 51 52 45 44 52 62 61 54 53 50 49 51 50 50 54 52 54 52 52 52 53 52 55 59 63 67 69 65 63
42 42 44 44 44 45 43 43 46 43 44 46 64 53 42 42 45 47 46 54 49 50 47 47 44 44 45 46 49 48 50 50 48 46 50 47 50 52 57 63 67 65 61 61
36 37 38 40 39 38 39 41 44 42 39 47 52 44 43 38 42 43 45 44 43 42 43 41 40 41 44 46 45 45 45 45 44 43 43 41 49 55 60 62 64 62 59 58
29 32 33 34 36 36 36 38 36 36 36 39 41 40 38 39 38 39 38 41 39 40 39 40 40 42 42 43 42 40 42 42 40 40 42 45 52 56 55 55 56 53 51 47
29 29 31 29 30 32 32 30 29 29 30 31 31 32 32 34 35 35 33 35 37 38 38 37 36 38 40 38 36 38 38 38 40 42 40 46 52 49 48 47 44 42 39 42
22 25 23 25 26 27 28 28 28 27 27 26 26 30 31 31 29 29 30 30 32 32 33 34 36 36 32 28 32 37 41 43 43 43 43 45 46 46 45 45 43 43 41 39
20 18 20 22 23 24 24 24 25 25 23 27 30 31 30 29 28 29 27 28 29 29 30 29 27 27 28 37 41 41 41 42 40 38 34 32 33 36 39 37 35 39 41 40
13 15 17 17 19 21 21 21 22 23 26 29 27 27 26 26 25 25 26 26 25 25 26 26 30 32 38 38 35 32 28 25 28 28 30 29 32 33 32 32 31 32 33 33
11 13 14 16 17 18 19 20 23 23 24 25 24 24 24 27 26 27 27 26 26 26 27 28 33 35 28 26 29 23 20 20 23 27 27 28 30 27 26 25 25 25 25 25
8 10 12 13 14 17 17 19 19 21 22 22 23 21 21 23 25 25 23 24 24 26 24 25 26 23 22 21 20 22 25 24 24 23 21 21 22 22 23 22 21 19 20 21
6 7 9 10 11 14 14 13 13 14 15 17 19 19 16 15 14 15 15 14 13 14 14 16 12 17 22 24 22 20 19 21 20 17 17 20 19 17 17 18 17 18 19 18
6 8 8 10 10 13 14 15 14 13 15 14 13 15 14 11 11 9 11 13 16 17 17 12 16 16 15 16 17 15 16 15 13 15 18 19 16 15 16 16 15 12 11 11
10 9 8 10 10 13 11 10 10 11 12 11 12 11 11 12 13 15 17 16 15 17 17 18 17 13 15 19 16 13 13 14 16 19 18 15 15 15 12 10 9 8 8 9
8 11 11 8 9 11 11 12 11 13 14 14 16 18 19 19 20 19 17 15 16 18 18 17 14 15 18 17 15 16 17 19 18 15 14 13 12 10 9 8 7 8 11 14
5 8 9 8 9 9 10 12 14 13 13 16 17 16 14 14 14 13 14 17 19 16 15 16 16 17 18 19 19 20 19 16 14 14 13 11 10 10 10 11 12 13 14 14
Wind_Direction
242 243 243 245 246 246 246 246 247 248 249 250 252 252 252 251 254 254 256 257 257 259 262 261 263 265 266 267 267 268 269 271 271 268 269 270 268 270 271 272 274 275 276 276
243 244 244 245 246 246 247 247 246 248 250 251 252 253 253 253 253 256 256 257 259 260 261 263 265 265 266 266 265 266 267 269 270 269 268 268 271 272 270 271 272 271 274 277
242 243 244 245 245 245 245 247 248 249 250 252 254 255 256 258 258 258 258 259 260 261 262 263 264 267 267 265 267 269 270 270 270 271 269 267 268 268 267 267 267 269 266 267
242 243 244 245 246 247 247 249 250 252 253 253 254 256 257 258 258 258 259 261 261 261 263 264 266 265 266 269 272 273 272 272 270 271 271 268 266 265 265 264 266 267 265 265
242 243 245 247 247 249 249 250 251 252 253 254 255 257 257 258 259 260 261 263 264 264 265 264 266 268 270 270 271 270 271 271 269 268 270 269 265 264 262 260 264 262 264 263
241 242 244 245 247 249 249 250 251 254 255 255 256 257 257 258 260 261 262 264 265 266 266 266 267 268 270 269 270 270 270 270 268 267 266 266 266 265 265 264 261 261 262 263
241 243 243 245 247 249 250 251 253 253 255 257 258 257 258 259 260 263 265 265 265 266 266 267 268 268 267 268 269 268 268 267 265 265 264 264 265 264 263 263 262 262 261 260
242 244 245 246 247 249 251 252 254 255 256 256 257 258 259 262 263 264 265 267 265 266 267 267 266 266 267 268 264 265 264 263 263 263 263 264 263 260 260 260 261 261 262 261
243 244 246 247 248 249 251 252 253 254 256 256 256 259 259 260 261 263 262 263 264 263 263 266 268 268 267 263 260 261 261 260 261 263 264 262 260 261 261 261 260 259 259 262
245 247 248 248 249 250 251 253 254 255 256 257 258 259 259 260 260 260 261 260 261 264 265 264 264 262 260 259 256 257 259 262 263 264 263 260 260 259 259 260 260 259 259 261
247 248 248 249 250 250 250 252 253 254 255 257 258 256 256 256 257 256 258 261 263 261 260 259 257 255 255 256 255 254 255 258 260 260 258 256 257 258 259 260 261 260 259 259
247 248 249 250 252 253 254 256 255 255 253 254 255 256 256 254 253 254 256 257 259 258 255 254 252 253 253 252 253 255 256 255 256 259 258 253 252 255 256 257 259 260 262 262
248 248 249 250 251 251 251 251 253 250 249 249 251 249 250 256 256 258 256 250 249 252 254 256 256 255 253 252 249 251 253 254 255 255 254 254 255 255 257 258 259 259 263 265
245 246 247 248 249 248 249 249 251 247 241 240 246 253 261 257 253 247 245 247 251 252 252 252 253 253 254 251 249 251 253 257 257 258 257 256 256 256 255 258 261 264 264 263
245 247 249 249 250 250 247 245 245 246 241 241 250 253 253 250 250 250 248 252 252 251 250 250 249 248 247 246 248 250 253 254 256 257 259 258 253 250 253 257 262 266 270 272
248 245 246 246 245 246 246 245 245 244 241 241 246 248 247 245 245 247 248 248 248 246 246 245 245 245 247 250 252 253 253 256 258 257 255 252 253 256 259 261 264 269 273 275
238 238 238 238 239 240 241 244 244 243 241 239 240 240 241 242 241 239 239 241 242 242 242 242 243 243 244 245 248 252 258 258 252 249 250 254 260 266 268 272 275 273 262 258
234 234 231 229 230 231 231 231 231 230 227 226 225 226 228 230 230 233 235 238 239 238 239 240 241 245 249 253 250 248 249 251 254 255 253 258 265 273 272 269 268 267 266 264
226 223 221 223 222 223 225 225 224 222 215 216 219 220 220 224 227 226 225 232 237 239 239 241 245 247 237 238 242 245 250 255 261 269 273 270 264 264 262 264 268 267 268 269
217 213 216 214 215 218 218 218 220 218 214 218 220 223 220 221 222 225 227 229 228 230 230 223 230 233 237 244 256 266 270 272 270 264 263 264 266 266 269 265 260 261 265 269
212 211 211 212 214 217 216 213 212 215 214 220 220 222 219 221 224 226 227 229 229 228 231 231 235 244 257 257 260 264 258 256 261 263 265 262 262 260 262 269 271 266 262 258
206 209 212 215 217 214 214 217 218 216 218 215 220 226 224 228 231 232 236 232 231 233 239 244 250 253 254 251 246 245 253 256 251 248 250 260 263 264 261 257 255 259 259 256
191 198 199 208 210 211 222 225 223 222 220 223 225 226 225 226 236 235 238 243 228 224 231 228 231 231 229 235 234 234 243 245 241 246 253 256 257 253 255 258 256 249 247 246
172 186 190 202 211 207 216 219 219 220 220 221 220 228 233 229 229 240 239 229 218 219 229 223 237 234 239 243 240 238 241 243 248 250 250 248 245 240 236 237 239 238 246 253
172 175 191 195 215 221 225 224 218 216 218 222 221 223 230 235 230 233 235 232 231 229 229 231 232 232 244 244 236 233 237 237 234 227 225 220 223 227 228 229 235 242 250 257
191 181 185 197 213 222 231 233 228 231 223 218 214 213 217 220 222 224 229 234 241 242 234 229 223 224 226 221 212 209 214 214 210 205 207 213 216 214 221 229 238 247 249 253
212 191 178 192 192 206 215 221 221 223 224 219 222 225 230 233 236 239 232 227 231 231 223 213 211 210 211 204 201 200 198 194 192 199 201 203 208 216 224 232 238 243 250 255